Погода в Бахте

Погода в Бахте : погода сейчас, прогноз погоды и архив. Всё, что Вы хотите узнать о погоде в Бахте!

Поиск расширенной информации на нашем сайте:

Другие новости

Новости СМИ2

Главная страница сайта

Новости сайта

02.10.2013

Напоминаем, что на нашем новом сайте вы можете получить высокодетализированные прогнозы погоды по пунктам России, СНГ и мира (включающие важные для авиации метеовеличины, такие как направление и скорость ветра, видимость, явления погоды, количество и форма облачности, нижняя и верхняя граница облачности), а также ознакомиться с разнообразными материалами по авиационной метеорологии и подборкой полезных ссылок на эту тему.

Сайт Метеоцентр.Азия посвящён разработке технологий оптимизации авиаметеорологического обслуживания, включая проектирование и перспективное создание нескольких автоматизированных авиаметеорологических систем:
- система выпуска высокодетальных прогностических карт явлений погоды для нижнего воздушного пространства по России и ближнему зарубежью;
- система верификации прогнозов TAF (выпускаемых синоптиками официальных АМСГ РФ и ближнего зарубежья) и AUTOTAF (выпускаемых сайтом Метеоцентр.Азия) - выявление ошибок, онлайн-сопоставление с фактической погодой METAR, автоматическое внесение коррективов в прогнозы при резком отклонении фактической погоды от прогноза, подсчёт оправдываемости прогнозов по элементам и в целом;
- система обработки, анализа и отображения авиаметеорологической информации для применения провайдерами метеорологической информации.

Рекомендуем: http://creativnost.com.ua/ скрапбукинг бумага купить: интернет магазин бумага.

Погода в Бахте - сегодня

Время (UTC), дата Ветер
(°,м/с) 
Видим.   Явления Облачность Т
(°С)
Тd
(°С)
f(%) Тe
(°С)
Pmin
(гПа)
dP
(гПа)
Po
(мм)
O2
(г/м3)
Тmin Tmax R s Состояние
почвы
06 21.02.17 180 (Ю) 10 км  слаб. снег  10/10 2000 м 
[As trans]
-11.7 -13.7 85 -14  1009.1  0.6  752  318           
09 21.02.17 180 (Ю) 20000 м  слаб. ливневой снег  8/8 600 м кучево-дожд. 
[Cb cap]
-9.8 -14 71 -14  1008.3  -0.8  751  315           
12 21.02.17 180 (Ю) н/о  {ливн. осадки, снег}  8/0 верхняя 
[Ci sp]
-10.5 -14.1 75 -12  1008  -0.3  751  316    -9.8  0.0     
15 21.02.17 140 (ЮВ) н/о  слаб. снег  10/10 2000 м 
[Ns]
-10.2 -13 80 -12  1005.9  -2.1  750  315           
18 21.02.17 тихо ()   н/о  слаб. снег  10/10 2000 м 
[Ns]
-9.5 -11.6 85 -10  1003.2  -2.7  748  313           
21 21.02.17 тихо ()   н/о  слаб. снег  10/10 2000 м 
[Ns]
-9 -11 85 -9  1001.9  -1.2  747  312           
00 22.02.17 тихо ()   н/о  слаб. снег  10/10 2000 м 
[Ns]
-9.1 -10.7 88 -9  1001.7  -0.2  746  312  -10.5    63  равномерный
сухой снег
100% 
03 22.02.17 тихо ()   20000 м  слаб. снег  10/10 2000 м 
[As trans]
-7.6 -8.6 93 -8  1002.2  0.6  747  310           
06 22.02.17 140 (ЮВ) 20000 м  {снег}  9/9 2000 м средняя 
[Ac As]
-5.1 -6.5 90 -6  1002.5  0.3  747  307           
09 22.02.17 тихо ()   20000 м    8/8 600 м кучево-дожд. 
[Cb cap]
-0.4 -2.8 84 -0  1003.6  1.2  748  302           
12 22.02.17 тихо ()   20000 м  {ливн. осадки}  8/8 600 м кучево-дожд. 
[Cb cap]
-0.7 -2.2 90 -1  1005.2  1.6  749  303    -0.4  0.3     
15 22.02.17 180 (Ю) н/о    10/10 600 м кучево-дожд. 
[Cb cap]
-0.2 -1.6 90 -1  1006.3  1.1  750  303           
18 22.02.17 тихо ()   н/о  слаб. снег  10/10 2000 м 
[Ns]
-0.8 -1.2 97 -1  1007.5  1.2  751  304           
21 22.02.17 тихо ()   н/о  слаб. снег  10/10 2000 м 
[Ns]
-1.9 -2.4 96 -2  1009  1.5  752  305           
00 23.02.17 180 (Ю) н/о  слаб. снег  10/10 2000 м 
[Ns]
-1.4 -1.9 96 -2  1008.1  -0.9  751  305  -1.9    0.9  64  равномерный
сухой снег
100% 
03 23.02.17 тихо ()   20000 м  {снег}  10/10 600 м кучево-дожд. 
[Cb cap]
-1.2 -2.1 94 -1  1009.2  1.1  752  305           
06 23.02.17 тихо ()   20000 м  {снег}  10/10 600 м кучево-дожд. 
[Cb cap]
+0.5 -0.6 92 +1  1010.3  1.1  753  303           
09 23.02.17 180 (Ю) 20000 м    10/10 600 м кучево-дожд. 
[Cb cap]
+1 -2.2 79 1011.5  1.2  754  303           
12 23.02.17 180 (Ю) 20000 м  {ливн. осадки}  10/10 600 м кучево-дожд. 
[Cb cap]
+1.2 -0.2 90 +1  1011.9  0.4  754  303    +1.2  0.0     
15 23.02.17 180 (Ю) н/о  слаб. ливневой снег  10/10 600 м кучево-дожд. 
[Cb cap]
+0.7 -1.6 85 1012.4  0.5  755  303           
18 23.02.17 180 (Ю) н/о  {ливн. осадки}  10/10 600 м кучево-дожд. 
[Cb cap]
+0.3 -2.4 82 -2  1012.5  0.1  755  304           
21 23.02.17 180 (Ю) н/о    10/10 600 м кучево-дожд. 
[Cb cap]
-0.4 -2.8 84 -1  1012.7  0.2  755  305           
00 24.02.17 180 (Ю) н/о    10/10 600 м кучево-дожд. 
[Cb cap]
-1.2 -4.4 79 -2  1012.9  0.2  755  306  -1.2    0.0  64  равномерный
сухой снег
100% 
03 24.02.17 230 (ЮЗ) 20000 м    10/10 600 м кучево-дожд. 
[Cb cap]
-2.8 -5.8 80 -6  1014.1  1.2  756  308  -2.8         
06 24.02.17 230 (ЮЗ) 20000 м    10/10 600 м кучево-дожд. 
[Cb cap]
-2.9 -5.9 80 -6  1015.1  757  309           
Время (UTC), дата Ветер
(°,м/с) 
Видим.   Явления Облачность Т
(°С)
Тd
(°С)
f(%) Тe
(°С)
Pmin
(гПа)
dP
(гПа)
Po
(мм)
O2
(г/м3)
Тmin Tmax R s Состояние
почвы

Для получения пояснительной информации подведите курсор к названию столбца.

ПОГОДА в Бахте - архив

Всё, что Вы хотите узнать о погоде в Бахте - удобно и подробно!

Выберите нужную дату (начиная с 1 января 2015* года) и нажмите кнопку "Найти".
Будут отображены архивные сводки погоды по пункту Бахта, начиная с указанной даты.


Отображать данные в формате CSV (для использования в таблицах Excel)


Внимание! Наш архив погоды предназначен исключительно для личного некоммерческого использования в познавательных целях. Если Вам необходимы официальные справки о состоянии погоды (для производственных, юридических, коммерческих и т.п. целей), обращайтесь в органы Росгидромета.

*Примечание: данная дата относится к архиву по метеостанциям СССР (Россия, СНГ, Балтия).
Архив по метеостанциям Зарубежной Европы и Азии (кроме Китая) хранится 10 дней, по другим регионам земного шара (Китай, Африка, Америка, Австралия, Океания) - 1 день.

Бахта - район местоположения метеостанции


Название, широта, долгота, высота метеостанции:
Бахта 62.3°ш. 89.2°д. 58 м над ур. моря [Российская Федерация]

Дополнительная информация

В oтличие oт бoльшинства пoгoдных сайтoв мы публикуем пoдрoбную метеoинфoрмацию в детальнoм прoфессиoнальнoм фoрмате.

Характеристики температуры и влажнoсти вoздуха измеряются на высoте 2 м в тени вдали oт зданий и деревьев.
Скoрoсть ветра измеряется на высoте 10 м (на урoвне рoста челoвека скoрoсть ветра ниже в 1.5-2 раза). Если метеoстанция нахoдится в гoрoде или в лесу, тo скoрoсть ветра занижена на 2-4 м/с пo сравнению с oткрытым местoм. Скoрoсть ветра над акватoриями крупных рек и oзёр, а также на вершинах хoлмoв на 2-5 м/с выше, чем в oбычных услoвиях.
Атмoсфернoе давление в разных тoчках местнoсти мoжет значительнo oтличаться oт давления на метеoстанции, в зависимoсти oт услoвий рельефа (при пoдъёме на 10 м давление пoнижается примернo на 1 мм рт.ст.).